TimePDT,TemperatureF,Dew PointF,Humidity,Sea Level PressureIn,VisibilityMPH,Wind Direction,Wind SpeedMPH,Gust SpeedMPH,PrecipitationIn,Events,Conditions,WindDirDegrees,DateUTC
12:53 AM,42.1,33.1,70,30.34,10.0,NW,12.7,-,N/A,,Clear,320,2013-04-18 07:53:00
1:53 AM,43.0,32.0,65,30.34,10.0,NW,11.5,-,N/A,,Clear,310,2013-04-18 08:53:00
2:53 AM,44.1,30.9,60,30.34,10.0,WNW,13.8,-,N/A,,Overcast,300,2013-04-18 09:53:00
3:53 AM,44.1,30.9,60,30.33,10.0,WNW,18.4,26.5,N/A,,Overcast,300,2013-04-18 10:53:00
4:53 AM,44.1,30.9,60,30.34,10.0,WNW,17.3,23.0,N/A,,Overcast,300,2013-04-18 11:53:00
5:53 AM,44.1,30.0,58,30.33,10.0,WNW,15.0,-,N/A,,Overcast,300,2013-04-18 12:53:00
6:53 AM,43.0,30.9,62,30.34,10.0,WNW,16.1,-,N/A,,Overcast,300,2013-04-18 13:53:00
7:53 AM,46.0,32.0,58,30.34,10.0,NW,19.6,26.5,N/A,,Mostly Cloudy,310,2013-04-18 14:53:00
8:53 AM,46.9,32.0,56,30.35,10.0,NW,19.6,26.5,N/A,,Overcast,310,2013-04-18 15:53:00
9:53 AM,52.0,34.0,50,30.33,10.0,NW,23.0,28.8,N/A,,Mostly Cloudy,310,2013-04-18 16:53:00
10:53 AM,55.0,34.0,45,30.32,10.0,NW,23.0,29.9,N/A,,Partly Cloudy,320,2013-04-18 17:53:00
11:53 AM,57.0,36.0,45,30.32,10.0,NW,24.2,29.9,N/A,,Mostly Cloudy,310,2013-04-18 18:53:00
12:17 PM,59.0,37.4,45,30.29,1.8,NW,25.3,31.1,N/A,,Haze,310,2013-04-18 19:17:00
12:32 PM,57.2,35.6,44,30.28,10.0,NW,21.9,-,N/A,,Clear,310,2013-04-18 19:32:00
12:53 PM,59.0,36.0,42,30.29,10.0,WNW,25.3,32.2,N/A,,Clear,300,2013-04-18 19:53:00
1:53 PM,60.1,37.0,42,30.28,10.0,NW,26.5,34.5,N/A,,Clear,320,2013-04-18 20:53:00
2:53 PM,57.9,37.0,46,30.27,10.0,NW,23.0,29.9,N/A,,Partly Cloudy,310,2013-04-18 21:53:00
3:53 PM,55.9,37.0,49,30.27,10.0,NW,23.0,32.2,N/A,,Mostly Cloudy,320,2013-04-18 22:53:00
4:53 PM,55.0,37.0,51,30.25,10.0,NW,20.7,28.8,N/A,,Overcast,320,2013-04-18 23:53:00
5:53 PM,54.0,37.0,53,30.25,10.0,NW,9.2,-,N/A,,Overcast,320,2013-04-19 00:53:00
6:53 PM,52.0,37.0,57,30.24,10.0,NW,20.7,-,N/A,,Mostly Cloudy,320,2013-04-19 01:53:00
7:53 PM,51.1,37.0,59,30.22,10.0,NW,20.7,27.6,N/A,,Partly Cloudy,320,2013-04-19 02:53:00
8:53 PM,50.0,36.0,59,30.23,10.0,NW,18.4,-,N/A,,Partly Cloudy,310,2013-04-19 03:53:00
9:53 PM,46.9,36.0,66,30.22,10.0,NW,13.8,-,N/A,,Clear,310,2013-04-19 04:53:00
10:53 PM,46.0,37.0,71,30.20,10.0,WNW,11.5,-,N/A,,Overcast,300,2013-04-19 05:53:00
11:53 PM,46.9,37.0,68,30.17,10.0,WNW,13.8,-,N/A,,Clear,300,2013-04-19 06:53:00